Dewpoint
51 52 53 54 55 58 58 58 59 59 59 59 60 60 60 60 60 60 60 59 59 59
45 47 48 50 50 51 53 54 57 59 59 59 59 59 59 59 59 59 59 59 59 58
40 41 43 45 44 45 47 49 51 53 54 56 58 59 59 59 59 58 58 58 58 58
40 40 40 41 41 42 42 43 44 46 50 51 52 55 56 57 58 57 58 58 57 57
39 40 40 40 40 41 42 42 42 43 44 47 49 51 53 55 56 56 56 56 56 55
38 38 39 39 40 40 41 41 42 42 43 43 45 48 49 52 53 54 55 55 55 55
36 37 37 38 38 39 40 40 40 41 41 42 43 44 46 47 48 51 51 52 53 54
33 34 35 35 37 37 37 38 39 40 39 40 41 42 44 44 44 45 47 48 49 50
30 30 31 33 33 34 35 35 36 37 38 38 39 42 44 44 42 43 44 45 46 47
27 27 28 29 29 30 31 33 33 35 36 36 37 39 41 42 42 41 41 41 42 44
27 26 26 27 26 27 29 30 31 32 34 35 35 36 38 40 41 42 41 40 39 40
27 25 25 25 25 26 28 28 28 31 32 32 33 35 35 37 37 38 40 41 41 39
26 25 24 25 25 26 26 26 27 27 28 32 30 34 35 33 36 37 37 37 40 42
25 24 24 24 24 24 24 24 24 24 26 27 29 31 34 34 31 32 35 37 38 40
Lifted_Index
3 3 3 3 3 3 3 3 3 3 3 3 3 2 2 2 2 2 2 2 2 2
4 4 4 3 3 3 3 3 3 3 3 2 2 2 2 2 2 2 2 2 2 2
7 7 6 5 5 4 4 3 3 3 3 2 2 2 2 2 2 2 2 2 2 1
10 10 9 8 8 7 7 6 6 5 5 4 4 4 3 2 2 2 2 2 1 1
12 11 11 11 11 11 10 10 10 9 8 8 8 7 6 5 4 3 3 2 2 2
12 12 13 13 13 13 13 13 12 12 11 10 10 9 8 7 6 5 4 3 3 2
14 14 15 15 15 15 15 14 14 13 12 12 11 10 9 9 8 6 5 4 3 2
16 16 17 17 17 17 16 16 16 15 14 13 12 11 10 10 9 8 7 5 4 3
17 18 18 18 18 18 17 17 17 17 16 15 15 13 12 11 10 9 8 7 6 5
18 18 18 19 18 18 18 18 18 17 17 16 16 15 14 13 12 10 9 8 7 6
19 19 19 19 19 19 19 19 18 18 17 17 16 15 15 14 13 12 10 9 8 7
20 19 19 19 20 20 20 20 19 18 17 16 15 15 15 14 14 13 12 10 9 8
21 21 21 21 21 21 20 20 19 17 16 16 15 14 14 14 13 13 12 11 10 9
21 21 22 22 22 22 21 20 18 17 16 16 15 14 13 13 13 13 12 12 11 10